Theta_e
341 342 344 343 342 341 343 345 343 341 337 332 331 330 330 328 327 324 321 319 320 319 319 319 318 317 316 315 314 312 311 309 307 308 309 310 312 314
338 337 341 343 340 336 335 342 343 341 339 333 327 331 329 328 326 325 322 320 320 320 320 319 319 318 316 315 315 313 312 310 308 308 307 307 310 311
335 337 339 338 336 332 333 333 332 341 338 327 323 326 328 328 328 327 324 321 320 321 320 320 319 319 317 316 315 314 313 310 309 308 307 307 307 308
329 333 337 336 333 327 330 331 337 340 336 330 324 323 324 325 326 326 325 322 319 320 321 321 320 318 318 317 315 314 312 310 309 309 308 307 308 307
321 321 327 330 325 321 330 332 332 330 324 321 321 321 321 322 325 325 325 322 319 318 321 321 320 317 317 317 315 314 311 310 309 308 308 307 310 311
314 317 321 323 327 323 329 332 329 324 322 322 322 322 322 322 324 325 324 321 320 318 316 316 318 320 318 317 315 314 311 310 309 309 309 308 307 308
313 314 314 317 322 320 322 326 325 323 322 323 323 324 325 322 321 321 320 322 321 320 320 317 314 316 319 317 316 314 311 309 309 309 310 309 308 307
310 312 315 311 314 318 321 323 324 324 323 323 325 322 309 313 318 318 322 322 322 320 320 316 313 313 318 318 316 314 311 309 308 308 308 308 307 306
311 311 310 310 310 315 320 322 324 325 325 324 315 307 309 313 315 316 317 319 318 318 317 313 311 311 315 317 316 314 310 309 309 308 308 307 307 307
316 315 316 316 315 314 310 308 308 309 308 308 309 308 308 309 310 313 317 317 316 313 308 308 308 313 316 317 315 313 310 310 310 309 308 307 307 306
319 321 323 323 315 314 314 311 310 310 311 313 313 313 312 311 308 308 313 314 313 311 311 309 308 313 314 313 315 312 311 311 310 309 308 308 305 305
319 322 325 323 312 312 312 312 310 312 313 315 315 315 315 313 312 309 309 310 311 311 312 311 310 311 312 311 311 311 312 311 309 309 308 305 305 306
319 319 320 314 310 310 309 312 312 313 315 316 317 316 315 315 313 312 311 312 313 313 313 312 311 310 311 312 312 312 312 311 309 308 306 306 306 306
316 316 313 311 310 309 309 309 311 312 315 316 316 316 316 315 313 313 313 313 312 313 313 313 312 312 312 313 312 311 310 309 307 306 306 307 306 306
316 315 312 314 319 311 308 308 308 311 314 315 315 315 315 315 313 313 314 313 312 313 313 312 312 312 313 313 312 310 309 307 306 307 307 307 306 306
320 322 321 322 322 318 310 308 309 312 313 314 314 314 315 314 313 313 313 313 311 312 312 311 311 311 312 311 311 310 308 307 307 308 308 306 305 306
320 322 323 323 323 321 316 310 309 310 313 313 312 313 313 312 313 312 313 313 311 311 311 311 311 311 312 311 310 309 308 308 308 308 309 307 306 305
317 318 319 320 321 321 320 314 312 313 315 315 316 314 314 313 312 313 313 312 310 311 311 311 311 311 310 310 309 307 307 307 308 308 308 307 305 305
315 316 316 317 318 320 320 320 315 317 318 317 317 317 317 317 314 313 313 312 311 311 311 311 311 311 310 310 307 307 308 308 309 308 308 306 305 305
311 312 313 314 315 316 318 320 319 317 318 320 319 318 317 317 317 313 313 313 311 311 311 312 312 311 311 309 307 307 308 307 308 308 307 305 305 305
315 313 312 313 313 313 314 315 318 317 315 319 322 320 319 318 318 316 313 313 311 311 311 312 312 311 310 308 308 309 308 308 308 307 306 305 306 305
318 319 319 317 315 314 314 313 314 315 316 320 322 323 321 319 318 317 314 314 313 311 311 312 312 312 311 311 310 309 308 308 308 307 306 306 306 305
323 321 322 324 325 326 324 318 314 313 313 315 322 323 323 321 320 318 316 314 313 312 311 312 312 310 311 311 310 309 309 307 307 306 305 306 305 304
Wind_Speed
7 6 7 7 7 7 11 15 13 10 6 4 2 4 3 5 5 10 14 15 16 18 19 20 23 27 29 30 31 33 34 30 24 21 19 18 18 18
7 7 8 9 8 7 6 9 13 11 8 8 4 6 6 3 3 4 10 12 11 13 15 16 17 22 25 26 28 31 33 35 30 26 22 19 17 16
6 5 8 9 8 7 7 6 10 12 11 9 5 8 7 7 4 3 4 7 9 9 9 12 14 16 20 23 24 27 30 35 32 32 31 25 19 16
6 7 9 10 9 9 8 6 9 9 8 5 6 7 6 6 5 5 1 2 6 6 5 6 8 10 13 16 18 22 25 31 32 30 30 27 25 20
7 7 8 8 7 3 5 9 11 9 4 1 7 6 3 5 7 7 5 2 3 5 5 4 6 7 9 12 15 19 21 26 30 27 26 26 24 25
6 7 7 6 6 4 7 9 7 6 6 5 5 4 3 4 6 6 6 6 1 3 5 7 7 7 7 9 12 15 18 22 26 27 23 24 25 25
7 8 7 7 7 7 7 8 8 6 8 8 7 5 7 9 9 8 9 9 5 5 5 8 11 11 7 6 8 13 18 25 24 25 24 21 23 22
8 8 7 6 7 7 8 8 5 6 9 8 7 8 5 5 5 6 10 11 7 7 7 9 11 9 9 7 7 10 15 23 23 22 21 18 22 25
8 8 7 7 6 6 7 7 8 9 9 9 8 3 3 3 3 3 4 9 8 5 6 10 11 8 8 8 4 6 12 18 21 20 24 19 22 27
8 8 6 5 5 4 3 5 5 5 5 4 2 2 4 1 1 1 2 1 1 3 2 6 8 2 5 6 6 4 9 15 19 17 20 18 21 23
9 10 7 2 2 2 1 2 5 5 5 6 6 6 5 5 5 1 2 3 2 2 5 7 8 4 3 4 6 6 10 15 19 16 16 18 19 18
11 12 10 5 3 2 2 3 5 5 4 4 4 3 3 3 5 3 2 1 2 2 4 6 8 2 3 6 5 8 11 13 15 17 17 18 18 21
12 11 9 7 3 3 4 5 6 7 6 4 3 3 1 2 2 0 0 2 3 3 3 3 4 4 4 7 9 11 13 14 15 17 17 15 19 22
12 10 10 7 3 5 6 8 10 9 8 6 5 6 4 4 3 3 1 4 6 6 7 6 6 6 9 12 14 13 14 13 16 10 16 19 19 19
13 12 12 9 6 7 9 10 10 11 10 9 7 5 6 7 6 5 5 7 7 6 6 7 8 10 12 13 15 15 15 16 10 13 18 19 21 21
18 17 16 14 12 11 12 12 12 12 12 10 7 7 9 9 8 7 7 8 8 9 8 7 10 9 10 12 14 14 15 13 16 17 19 21 19 19
20 22 23 22 20 18 14 15 15 16 15 11 11 10 9 11 10 10 9 10 9 8 8 11 12 9 11 12 13 15 12 13 16 20 22 23 22 20
26 27 27 26 24 22 19 17 18 18 16 15 13 11 11 11 13 12 13 13 12 10 10 11 9 11 13 12 15 15 10 15 16 17 19 22 24 21
35 32 30 29 28 26 25 22 21 19 18 19 17 15 12 14 14 15 15 14 15 13 10 10 10 11 11 15 14 8 15 17 16 15 17 21 23 22
40 39 37 34 32 30 30 29 25 24 26 25 24 21 19 18 18 18 17 14 13 13 12 12 11 10 12 14 13 10 14 17 14 13 16 20 22 20
40 40 39 37 35 34 33 32 31 29 29 31 29 26 24 24 22 20 20 18 15 15 15 14 10 8 13 13 15 18 12 15 13 11 17 21 20 20
41 40 37 37 37 36 36 36 35 35 33 33 33 30 28 27 26 24 22 22 18 17 15 11 10 7 12 15 16 16 15 15 9 11 13 14 17 18
43 41 40 40 38 36 36 37 38 38 37 38 36 34 31 32 29 28 25 24 21 18 17 14 14 8 12 13 15 14 15 10 9 13 13 11 15 16
Wind_Direction
246 220 208 222 257 243 229 230 226 185 194 184 143 153 120 90 54 48 55 54 59 57 53 49 46 47 46 45 44 43 39 37 35 32 31 31 28 26
256 249 230 241 250 257 244 219 228 247 222 191 192 177 164 142 155 71 59 47 48 50 45 41 40 42 42 42 40 38 36 32 32 32 26 20 19 22
239 225 231 242 261 273 250 241 226 220 219 176 169 168 182 172 168 157 84 60 43 40 35 31 27 28 32 34 35 36 33 28 28 28 27 27 21 15
223 222 236 249 260 274 252 236 196 194 222 211 175 165 180 185 188 198 198 49 46 32 27 28 21 21 22 27 31 32 34 27 23 24 22 21 22 26
223 221 233 245 262 242 161 168 158 168 177 164 170 174 190 212 235 234 209 219 27 15 11 9 6 3 6 17 27 29 32 26 19 20 26 29 27 27
205 205 209 213 219 197 179 176 174 174 171 165 174 189 227 211 201 220 230 207 296 349 4 357 347 334 340 358 16 20 28 22 18 16 17 22 27 24
202 199 199 207 213 199 195 195 198 205 197 199 196 222 255 237 227 238 237 225 249 293 315 336 339 316 304 328 354 11 19 19 13 11 7 7 8 10
191 179 182 177 184 185 188 191 195 241 223 214 249 283 250 214 194 200 203 212 242 277 299 317 322 313 283 288 324 358 12 17 13 8 2 356 1 2
172 168 166 157 159 176 190 198 203 208 224 256 272 243 198 201 202 179 209 227 239 267 305 298 304 296 263 257 280 338 10 15 5 2 6 358 356 351
177 177 167 163 136 136 159 178 184 179 169 146 98 100 104 102 344 190 193 196 311 341 338 325 326 299 194 219 228 290 349 2 352 350 355 357 348 347
197 200 202 179 167 143 127 165 156 150 136 123 112 90 73 56 51 359 258 289 273 24 24 17 15 173 334 281 231 297 324 343 339 341 342 341 347 353
215 214 212 231 201 198 199 203 197 185 182 174 155 126 63 30 23 20 51 73 173 235 17 37 46 40 4 12 347 332 306 307 329 342 341 339 349 354
227 226 217 221 215 223 217 214 215 208 207 209 248 257 300 341 313 47 13 276 285 308 295 352 25 20 6 342 339 308 321 307 333 339 354 353 344 340
232 223 213 216 213 226 228 229 227 227 223 233 250 253 258 302 250 223 273 286 283 296 303 303 312 308 316 324 329 333 334 329 331 4 354 341 338 341
219 215 212 206 218 230 229 235 235 231 232 245 249 243 265 278 251 251 264 309 297 286 296 294 285 289 300 310 315 330 325 340 351 346 342 335 334 334
213 210 214 223 232 236 229 233 231 231 241 249 249 256 272 273 264 266 272 289 284 258 271 285 299 278 280 302 305 319 322 312 337 333 326 335 337 342
220 223 227 234 236 236 235 234 232 235 240 246 247 248 267 272 265 265 270 280 269 264 278 297 303 294 302 308 308 315 309 306 318 316 319 324 338 336
230 231 233 239 243 240 238 240 238 237 238 235 239 237 249 275 265 262 264 279 266 267 269 292 281 300 309 309 315 313 298 318 314 308 314 323 331 340
237 240 241 242 245 245 242 242 243 244 241 241 240 240 244 257 267 260 262 272 269 267 268 279 286 296 305 307 325 322 325 324 312 308 312 322 326 333
237 240 243 245 247 248 247 246 248 244 242 242 244 244 243 248 258 257 253 264 264 264 260 276 285 305 312 312 314 319 319 322 311 304 316 324 333 334
241 244 245 247 249 251 251 250 250 249 248 245 246 247 247 245 251 257 249 246 243 245 244 263 272 291 317 306 305 312 314 320 303 318 323 329 338 338
246 248 252 254 254 254 256 255 255 251 248 244 244 246 245 245 249 251 250 242 251 245 239 250 249 283 300 308 300 301 307 322 289 322 333 331 337 334
250 252 253 255 257 258 258 258 257 257 253 249 247 248 247 245 248 249 249 243 241 235 231 227 237 238 285 305 310 307 314 310 300 320 334 338 331 342